FW6662 Weather Reports


Display with metric or nautical units.
time (UTC)temp
F
wind
direction
speed
MPH
gust
MPH
rain 1hr
in
rain 24hr
in
rain mn
in
humidity
%
barometer
mb
20260504100503 44 171 3.0 9.0 0.00 0.00 0.00 66 1012.9
20260504082003 44 182 3.0 6.0 0.00 0.00 0.00 66 1013.3
20260504081503 44 171 1.0 6.0 0.00 0.00 0.00 65 1013.4
20260504081003 44 170 1.0 7.0 0.00 0.00 0.00 66 1013.3
20260504080503 44 172 1.0 7.0 0.00 0.00 0.00 66 1013.3
20260504050505 46 219 1.0 4.0 0.00 0.00 0.00 62 1012.9
20260504050005 46 221 1.0 4.0 0.00 0.00 0.00 61 1013.0
20260504045505 46 225 1.0 3.0 0.00 0.00 0.00 61 1013.0
20260504045005 46 225 0.0 3.0 0.00 0.00 0.00 60 1013.0
20260504044505 46 202 0.0 1.0 0.00 0.00 0.00 59 1013.0
20260504044005 46 0 0.0 0.0 0.00 0.00 0.00 60 1012.9
20260504043505 46 202 0.0 3.0 0.00 0.00 0.00 60 1012.9
20260504043005 46 202 0.0 3.0 0.00 0.00 0.00 61 1013.0
20260504042526 46 0 0.0 0.0 0.00 0.00 0.00 63 1012.9
20260504042005 46 0 0.0 0.0 0.00 0.00 0.00 63 1012.9
20260504041505 46 0 0.0 0.0 0.00 0.00 0.00 60 1012.8
20260504041005 46 0 0.0 0.0 0.00 0.00 0.00 64 1012.8
20260504040505 46 0 0.0 0.0 0.00 0.00 0.00 61 1012.8
20260504040005 46 0 0.0 0.0 0.00 0.00 0.00 60 1012.8
20260504035505 46 0 0.0 0.0 0.00 0.00 0.00 59 1012.8
20260504035005 46 0 0.0 0.0 0.00 0.00 0.00 60 1012.8
20260504034505 46 0 0.0 0.0 0.00 0.00 0.00 61 1012.8
20260504034005 46 0 0.0 0.0 0.00 0.00 0.00 59 1012.8
20260504033505 46 0 0.0 0.0 0.00 0.00 0.00 60 1012.7
20260504033026 46 0 0.0 0.0 0.00 0.00 0.00 61 1012.7
20260504032504 46 0 0.0 0.0 0.00 0.00 0.00 60 1012.8
20260504032005 46 0 0.0 0.0 0.00 0.00 0.00 59 1012.7
20260504031525 46 0 0.0 0.0 0.00 0.00 0.00 58 1012.7
20260504031005 47 0 0.0 0.0 0.00 0.00 0.00 58 1012.7
20260504030505 47 0 0.0 0.0 0.00 0.00 0.00 61 1012.7
20260504030005 47 0 0.0 0.0 0.00 0.00 0.00 61 1012.8
20260504025505 47 0 0.0 0.0 0.00 0.00 0.00 58 1012.8
20260504025005 47 0 0.0 0.0 0.00 0.00 0.00 58 1012.8
20260504024504 48 0 0.0 0.0 0.00 0.00 0.00 59 1012.7
20260504024005 48 0 0.0 0.0 0.00 0.00 0.00 58 1012.8
20260504023505 48 0 0.0 0.0 0.00 0.00 0.00 58 1012.8
20260504023005 48 0 0.0 0.0 0.00 0.00 0.00 57 1012.7
20260504022505 48 0 0.0 0.0 0.00 0.00 0.00 55 1012.7
20260504022026 48 0 0.0 0.0 0.00 0.00 0.00 54 1012.7
20260504021505 48 0 0.0 0.0 0.00 0.00 0.00 55 1012.7
20260504021026 49 0 0.0 0.0 0.00 0.00 0.00 55 1012.7
20260504020504 49 0 0.0 0.0 0.00 0.00 0.00 56 1012.8
20260504020005 49 0 0.0 0.0 0.00 0.00 0.00 56 1012.8
20260504015525 49 0 0.0 0.0 0.00 0.00 0.00 54 1012.7
20260504015004 49 279 0.0 1.0 0.00 0.00 0.00 55 1012.7
20260504014525 49 279 0.0 1.0 0.00 0.00 0.00 54 1012.7
20260504014026 49 0 0.0 0.0 0.00 0.00 0.00 54 1012.5
20260504013525 49 279 0.0 1.0 0.00 0.00 0.00 54 1012.5
20260504013004 50 279 0.0 1.0 0.00 0.00 0.00 54 1012.5
20260504012505 50 0 0.0 0.0 0.00 0.00 0.00 52 1012.4
20260504012005 50 279 0.0 1.0 0.00 0.00 0.00 53 1012.4
20260504011504 50 279 0.0 1.0 0.00 0.00 0.00 53 1012.3
20260504011005 50 0 0.0 0.0 0.00 0.00 0.00 53 1012.3
20260504010527 51 0 0.0 0.0 0.00 0.00 0.00 52 1012.3
20260504010004 51 0 0.0 0.0 0.00 0.00 0.00 52 1012.1
20260504005504 51 0 0.0 0.0 0.00 0.00 0.00 52 1012.0
20260504005004 52 0 0.0 0.0 0.00 0.00 0.00 52 1012.1
20260504004504 52 279 0.0 1.0 0.00 0.00 0.00 51 1012.1
20260504004005 52 279 0.0 1.0 0.00 0.00 0.00 49 1012.0
20260504003504 52 0 0.0 0.0 0.00 0.00 0.00 49 1012.0
20260504003004 52 279 0.0 1.0 0.00 0.00 0.00 49 1012.0
20260504002504 53 279 0.0 3.0 0.00 0.00 0.00 50 1011.9
20260504002025 53 279 0.0 3.0 0.00 0.00 0.00 49 1011.9
20260504001504 53 279 0.0 1.0 0.00 0.00 0.00 48 1011.8
20260504001005 53 279 0.0 1.0 0.00 0.00 0.00 50 1011.7
20260504000504 54 280 0.0 4.0 0.00 0.00 0.00 50 1011.6
20260504000004 54 287 1.0 4.0 0.00 0.00 0.00 50 1011.7
20260503235504 54 291 0.0 4.0 0.00 0.00 0.00 48 1011.7
20260503235004 54 0 0.0 0.0 0.00 0.00 0.00 52 1011.5
20260503234504 54 0 0.0 0.0 0.00 0.00 0.00 52 1011.5
20260503234052 54 0 0.0 0.0 0.00 0.00 0.00 53 1011.5
20260503233504 54 270 0.0 1.0 0.00 0.00 0.00 51 1011.5
20260503233004 54 268 0.0 3.0 0.00 0.00 0.00 54 1011.5
20260503232504 55 266 0.0 3.0 0.00 0.00 0.00 51 1011.5
20260503232004 55 264 0.0 3.0 0.00 0.00 0.00 51 1011.5
20260503231505 55 269 0.0 3.0 0.00 0.00 0.00 48 1011.5
20260503231004 55 268 1.0 3.0 0.00 0.00 0.00 51 1011.5
20260503230526 55 286 1.0 4.0 0.00 0.00 0.00 46 1011.4
20260503230004 55 290 1.0 4.0 0.00 0.00 0.00 48 1011.5
20260503225504 55 277 3.0 7.0 0.00 0.00 0.00 50 1011.4
20260503225004 56 285 3.0 9.0 0.00 0.00 0.00 50 1011.5
20260503224525 56 298 3.0 9.0 0.00 0.00 0.00 50 1011.4
20260503224004 56 305 1.0 9.0 0.00 0.00 0.00 49 1011.5
20260503223504 56 296 3.0 7.0 0.00 0.00 0.00 46 1011.4
20260503223004 56 279 3.0 10.0 0.00 0.00 0.00 46 1011.5
20260503222504 56 268 3.0 10.0 0.00 0.00 0.00 46 1011.4
20260503222026 56 257 3.0 9.0 0.00 0.00 0.00 44 1011.5
20260503221504 56 250 3.0 9.0 0.00 0.00 0.00 45 1011.4
20260503221004 56 277 4.0 12.0 0.00 0.00 0.00 43 1011.5
20260503220504 56 280 4.0 12.0 0.00 0.00 0.00 43 1011.4
20260503220004 56 285 3.0 10.0 0.00 0.00 0.00 43 1011.5
20260503215525 56 294 3.0 10.0 0.00 0.00 0.00 47 1011.6
20260503215004 56 278 3.0 7.0 0.00 0.00 0.00 45 1011.5
20260503214504 57 262 3.0 9.0 0.00 0.00 0.00 44 1011.4
20260503214004 57 288 3.0 12.0 0.00 0.00 0.00 42 1011.4
20260503213525 57 297 3.0 17.0 0.00 0.00 0.00 42 1011.5
20260503213004 57 264 4.0 17.0 0.00 0.00 0.00 44 1011.4
20260503212504 58 257 3.0 13.0 0.00 0.00 0.00 41 1011.4
20260503212004 58 259 3.0 7.0 0.00 0.00 0.00 44 1011.3
20260503211504 58 235 1.0 9.0 0.00 0.00 0.00 43 1011.4
20260503211004 58 283 1.0 10.0 0.00 0.00 0.00 40 1011.4
20260503210504 58 274 3.0 10.0 0.00 0.00 0.00 40 1011.4
20260503210005 58 233 3.0 9.0 0.00 0.00 0.00 39 1011.4
20260503205504 58 272 3.0 12.0 0.00 0.00 0.00 43 1011.4
20260503205004 59 287 3.0 12.0 0.00 0.00 0.00 39 1011.4
20260503204504 59 249 3.0 10.0 0.00 0.00 0.00 39 1011.3
20260503204004 58 229 1.0 6.0 0.00 0.00 0.00 40 1011.3
20260503203525 58 264 3.0 9.0 0.00 0.00 0.00 42 1011.3
20260503203025 58 269 3.0 9.0 0.00 0.00 0.00 41 1011.4
20260503202504 58 278 3.0 7.0 0.00 0.00 0.00 38 1011.4
20260503202004 59 285 3.0 10.0 0.00 0.00 0.00 38 1011.4
20260503201504 59 287 3.0 10.0 0.00 0.00 0.00 39 1011.4
20260503201004 59 263 3.0 9.0 0.00 0.00 0.00 37 1011.4
20260503200504 59 275 3.0 9.0 0.00 0.00 0.00 40 1011.5
20260503200004 60 318 3.0 9.0 0.00 0.00 0.00 36 1011.5
20260503195504 60 273 3.0 7.0 0.00 0.00 0.00 35 1011.5
20260503195004 60 254 1.0 6.0 0.00 0.00 0.00 41 1011.6
20260503194504 60 281 3.0 10.0 0.00 0.00 0.00 42 1011.7
20260503194004 59 250 4.0 10.0 0.00 0.00 0.00 35 1011.8
20260503193504 60 262 6.0 14.0 0.00 0.00 0.00 37 1011.9
20260503193004 60 285 6.0 14.0 0.00 0.00 0.00 34 1011.8
20260503192504 60 279 6.0 14.0 0.00 0.00 0.00 36 1011.9
20260503192025 59 272 6.0 23.0 0.00 0.00 0.00 39 1011.9
20260503191504 59 268 4.0 23.0 0.00 0.00 0.00 37 1012.0
20260503191025 58 275 4.0 14.0 0.00 0.00 0.00 39 1012.0
20260503190504 58 267 4.0 16.0 0.00 0.00 0.00 38 1012.1
20260503190004 58 239 4.0 16.0 0.00 0.00 0.00 41 1012.3
20260503185505 59 238 4.0 16.0 0.00 0.00 0.00 36 1012.1
20260503185026 58 233 4.0 13.0 0.00 0.00 0.00 38 1012.5
20260503184504 58 227 3.0 10.0 0.00 0.00 0.00 41 1012.5
20260503184025 58 267 3.0 13.0 0.00 0.00 0.00 43 1012.6
20260503183504 58 253 3.0 13.0 0.00 0.00 0.00 43 1012.7
20260503183004 58 236 3.0 7.0 0.00 0.00 0.00 42 1012.7
20260503182505 57 285 3.0 16.0 0.00 0.00 0.00 44 1012.7
20260503182005 56 272 6.0 20.0 0.00 0.00 0.00 43 1012.9
20260503181505 56 279 6.0 20.0 0.00 0.00 0.00 41 1012.8
20260503181004 56 309 4.0 12.0 0.00 0.00 0.00 40 1013.1
20260503180525 56 304 3.0 9.0 0.00 0.00 0.00 44 1013.0
20260503180004 55 293 1.0 9.0 0.00 0.00 0.00 41 1013.0
20260503175504 55 253 1.0 4.0 0.00 0.00 0.00 40 1013.2
20260503175004 55 223 1.0 7.0 0.00 0.00 0.00 45 1013.2
20260503174525 54 244 3.0 9.0 0.00 0.00 0.00 40 1013.3
20260503174004 54 249 4.0 10.0 0.00 0.00 0.00 44 1013.3
20260503173504 53 243 4.0 14.0 0.00 0.00 0.00 48 1013.5
20260503173004 53 243 4.0 14.0 0.00 0.00 0.00 47 1013.5
20260503172504 54 246 4.0 12.0 0.00 0.00 0.00 44 1013.4
20260503172004 54 251 4.0 12.0 0.00 0.00 0.00 42 1013.5
20260503171504 54 249 4.0 12.0 0.00 0.00 0.00 42 1013.5
20260503171004 53 260 4.0 14.0 0.00 0.00 0.00 51 1013.6
20260503170504 53 254 4.0 14.0 0.00 0.00 0.00 42 1013.7
20260503150504 48 273 6.0 19.0 0.00 0.00 0.00 47 1014.2
20260503131004 42 259 3.0 12.0 0.00 0.00 0.00 72 1014.6
20260503130504 42 263 4.0 12.0 0.00 0.00 0.00 69 1014.7
20260503110503 37 290 1.0 3.0 0.00 0.00 0.00 82 1014.2